Terminal Aerodrome Forecast
Issued by NWS

Home | Current Version | Previous Version | Graphics & Text | Print | Product List | Glossary On
Versions: 1 2 3 4 5 6 7 8 9 10 11 12 13 14
000
FTUS43 KICT 261133
TAFCNU
TAF
KCNU 261133Z 2612/2712 28010KT P6SM SCT060 OVC080
     FM261700 32018G28KT P6SM BKN060
     FM270000 34010KT P6SM SCT050=

USA.gov is the U.S. government's official web portal to all federal, state and local government web resources and services.